Location: Heiligenberg
(48.5381°N, 7.3897°E)
Time: 20:40:05
(UTC+00:00)

IRS-1D - Pass Details

Date: 26 May 2022
Orbit: 740 x 816 km, 98.7° (Epoch: 04 July)

Event Time Altitude Azimuth Distance (km) Brightness Sun altitude
Rises 01:54:42 0° 18° (NNE) 3,355 8.4 -13.0°
Reaches altitude 10° 01:57:08 10° 23° (NNE) 2,416 7.5 -12.8°
Maximum altitude 02:02:23 54° 100° (E) 982 4.2 -12.2°
Drops below altitude 10° 02:07:31 10° 178° (S) 2,372 5.6 -11.7°
Enters shadow 02:07:57 - 179° (S) 2,537 5.7 -11.7°
